Location: Acton
(51.4942°N, 0.2232°W)
Time: 12:47:59
(UTC+00:00)

Cosmos 1975 Rocket - Pass Details

Date: 18 September 2020
Orbit: 603 x 634 km, 82.5° (Epoch: 24 October)

Event Time Altitude Azimuth Distance (km) Brightness Sun altitude
Rises 19:04:13 0° 348° (NNW) 2,886 6.9 -9.5°
Reaches altitude 10° 19:06:27 10° 346° (NNW) 1,973 6.0 -9.9°
Maximum altitude 19:10:48 74° 262° (W) 635 3.3 -10.5°
Drops below altitude 10° 19:15:05 10° 178° (S) 1,947 5.4 -11.2°
Sets 19:17:17 0° 176° (S) 2,844 6.2 -11.5°
